Weather History for Hartford, CT

Change the Weather History Date:

Saturday, March 22, 2014

  Actual Average Record
Temperature  
Mean Temperature 42 °F -  
Max Temperature 60 °F 47 °F 82 °F (2012)
Min Temperature 26 °F 29 °F 12 °F (1934)
Degree Days  
Heating Degree Days 22    
Moisture  
Dew Point 26 °F    
Average Humidity 58    
Maximum Humidity 81    
Minimum Humidity 29    
Precipitation  
Precipitation 0.00 in - - ()
Sea Level Pressure  
Sea Level Pressure 29.90 in    
Wind  
Wind Speed 6 mph (West)    
Max Wind Speed 18 mph    
Max Gust Speed 30 mph    
Visibility 10 miles    
Events Rain    
Averages and records for this station are not official NWS values.
T = Trace of Precipitation, MM = Missing Value Source: NWS Daily Summary

Daily Weather History Graph

Daily Weather History Graph

Search for Another Location

Airport:

Trip Planner

Search our weather history database for the weather conditions in past years. The results will help you decide how hot, cold, wet, or windy it might be!

Date:

Astronomy

Mar. 22, 2014 Rise Set
Actual Time 6:50 AM EDT 7:04 PM EDT
Civil Twilight 6:22 AM EDT 7:32 PM EDT
Nautical Twilight 5:50 AM EDT 8:05 PM EDT
Astronomical Twilight 5:17 AM EDT 8:38 PM EDT
Moon 12:25 AM EDT (3/22) 10:27 AM EDT (3/22)
Length of Visible Light 13h 09m
Length of Day
12h 14m
Waning Gibbous, 65% of the Moon is Illuminated
Mar 22
Waning Gibbous
Mar 23
Last Quarter
Mar 30
New
Apr 7
First Quarter
Apr 15
Full

Hourly Weather History & Observations

Time (EDT) Temp. Windchill Dew Point Humidity Pressure Visibility Wind Dir Wind Speed Gust Speed Precip Events Conditions
12:53 AM 30.0 °F - 23.0 °F 75% 30.09 in 10.0 mi Calm Calm - N/A   Clear
1:53 AM 26.1 °F 21.9 °F 21.0 °F 81% 30.07 in 10.0 mi NE 3.5 mph - N/A   Clear
2:53 AM 28.0 °F 22.8 °F 19.9 °F 72% 30.06 in 10.0 mi WSW 4.6 mph - N/A   Clear
3:53 AM 27.0 °F 23.0 °F 21.9 °F 81% 30.05 in 10.0 mi SSW 3.5 mph - N/A   Clear
4:53 AM 28.0 °F 22.8 °F 21.9 °F 78% 30.02 in 10.0 mi South 4.6 mph - N/A   Overcast
5:53 AM 28.0 °F 24.2 °F 21.9 °F 78% 30.00 in 10.0 mi SSE 3.5 mph - N/A   Partly Cloudy
6:53 AM 28.9 °F - 21.9 °F 75% 29.98 in 10.0 mi Calm Calm - N/A   Partly Cloudy
7:53 AM 30.0 °F - 23.0 °F 75% 29.96 in 10.0 mi Calm Calm - N/A   Mostly Cloudy
8:53 AM 32.0 °F - 23.0 °F 69% 29.91 in 10.0 mi Calm Calm - N/A   Overcast
9:53 AM 39.0 °F 32.8 °F 28.0 °F 65% 29.84 in 10.0 mi South 9.2 mph - N/A   Partly Cloudy
10:53 AM 46.9 °F - 33.1 °F 59% 29.77 in 10.0 mi South 15.0 mph 21.9 mph N/A   Clear
11:53 AM 52.0 °F - 36.0 °F 54% 29.74 in 10.0 mi SSW 11.5 mph 27.6 mph N/A   Clear
12:53 PM 51.1 °F - 35.1 °F 54% 29.73 in 10.0 mi West 10.4 mph 19.6 mph 0.00 in Rain Light Rain
1:53 PM 55.9 °F - 35.1 °F 45% 29.72 in 10.0 mi West 12.7 mph 21.9 mph 0.00 in   Partly Cloudy
2:53 PM 57.0 °F - 28.9 °F 34% 29.73 in 10.0 mi West 13.8 mph 28.8 mph N/A   Scattered Clouds
3:53 PM 59.0 °F - 28.9 °F 32% 29.73 in 10.0 mi WNW 16.1 mph 29.9 mph N/A   Partly Cloudy
4:53 PM 59.0 °F - 27.0 °F 29% 29.75 in 10.0 mi West 18.4 mph 28.8 mph N/A   Partly Cloudy
5:53 PM 57.0 °F - 25.0 °F 29% 29.79 in 10.0 mi WNW 17.3 mph 23.0 mph N/A   Clear
6:53 PM 51.1 °F - 24.1 °F 35% 29.86 in 10.0 mi NNW 11.5 mph 24.2 mph N/A   Clear
7:53 PM 46.9 °F - 21.9 °F 37% 29.92 in 10.0 mi NNW 9.2 mph - N/A   Clear
8:53 PM 43.0 °F 37.2 °F 25.0 °F 49% 29.96 in 10.0 mi North 10.4 mph 19.6 mph N/A   Clear
9:53 PM 39.0 °F 34.0 °F 24.1 °F 55% 29.99 in 10.0 mi North 6.9 mph - N/A   Clear
10:53 PM 36.0 °F 32.1 °F 24.1 °F 62% 29.99 in 10.0 mi North 4.6 mph - N/A   Clear
11:53 PM 36.0 °F 33.3 °F 24.1 °F 62% 29.99 in 10.0 mi North 3.5 mph - N/A   Clear